Weather History for Clovis, NM

Change the Weather History Date:

Friday, February 7, 2014

  Actual Average Record
Temperature  
Mean Temperature 30 °F -  
Max Temperature 51 °F 49 °F 75 °F (1938)
Min Temperature 10 °F 22 °F -10 °F (1933)
Degree Days  
Heating Degree Days 34    
Moisture  
Dew Point 21 °F    
Average Humidity 68    
Maximum Humidity 86    
Minimum Humidity 43    
Precipitation  
Precipitation 0.00 in - - ()
Sea Level Pressure  
Sea Level Pressure 29.99 in    
Wind  
Wind Speed 14 mph (SW)    
Max Wind Speed 31 mph    
Max Gust Speed 38 mph    
Visibility 10 miles    
Events      
Averages and records for this station are not official NWS values.
T = Trace of Precipitation, MM = Missing Value Source: NWS Daily Summary

Daily Weather History Graph

Daily Weather History Graph

Search for Another Location

Airport:

Trip Planner

Search our weather history database for the weather conditions in past years. The results will help you decide how hot, cold, wet, or windy it might be!

Date:

Astronomy

Feb. 07, 2014 Rise Set
Actual Time 6:45 AM MST 5:28 PM MST
Civil Twilight 6:19 AM MST 5:54 PM MST
Nautical Twilight 5:49 AM MST 6:24 PM MST
Astronomical Twilight 5:19 AM MST 6:53 PM MST
Moon 11:43 AM MST (2/7) 1:01 AM MST (2/7)
Length of Visible Light 11h 35m
Length of Day
10h 43m
First Quarter, 60% of the Moon is Illuminated
Feb 7
First Quarter
Feb 14
Full
Feb 22
Last Quarter
Mar 1
New
Mar 8
First Quarter

Hourly Weather History & Observations

Time (MST) Temp. Windchill Dew Point Humidity Pressure Visibility Wind Dir Wind Speed Gust Speed Precip Events Conditions
12:15 AM 15.8 °F 2.1 °F 10.4 °F 79% 30.04 in 10.0 mi South 12.7 mph - N/A   Clear
12:35 AM 14.0 °F 3.9 °F 8.6 °F 79% 30.05 in 10.0 mi South 6.9 mph - N/A   Clear
12:55 AM 14.0 °F 1.2 °F 8.6 °F 79% 30.05 in 10.0 mi South 10.4 mph - N/A   Clear
1:15 AM 12.2 °F -0.2 °F 8.6 °F 85% 30.04 in 10.0 mi South 9.2 mph - N/A   Clear
1:35 AM 12.2 °F 0.7 °F 8.6 °F 85% 30.04 in 10.0 mi South 8.1 mph - N/A   Clear
1:55 AM 10.4 °F -2.4 °F 6.8 °F 85% 30.03 in 10.0 mi South 9.2 mph - N/A   Partly Cloudy
2:15 AM 12.2 °F 0.7 °F 8.6 °F 85% 30.03 in 10.0 mi South 8.1 mph - N/A   Mostly Cloudy
2:35 AM 12.2 °F 0.7 °F 8.6 °F 85% 30.03 in 10.0 mi South 8.1 mph - N/A   Mostly Cloudy
2:55 AM 14.0 °F 1.2 °F 10.4 °F 86% 30.03 in 10.0 mi SSW 10.4 mph - N/A   Overcast
3:15 AM 15.8 °F 6.1 °F 10.4 °F 79% 30.03 in 10.0 mi SSW 6.9 mph - N/A   Overcast
3:35 AM 15.8 °F 4.2 °F 12.2 °F 86% 30.02 in 10.0 mi South 9.2 mph - N/A   Overcast
3:55 AM 17.6 °F 5.7 °F 12.2 °F 79% 30.03 in 10.0 mi South 10.4 mph - N/A   Overcast
4:15 AM 17.6 °F 5.0 °F 12.2 °F 79% 30.02 in 10.0 mi South 11.5 mph - N/A   Overcast
4:35 AM 17.6 °F 3.7 °F 12.2 °F 79% 30.02 in 10.0 mi South 13.8 mph - N/A   Overcast
4:55 AM 17.6 °F 3.7 °F 12.2 °F 79% 30.03 in 10.0 mi South 13.8 mph - N/A   Overcast
5:15 AM 17.6 °F 3.7 °F 12.2 °F 79% 30.03 in 10.0 mi South 13.8 mph - N/A   Overcast
5:35 AM 17.6 °F 6.4 °F 12.2 °F 79% 30.02 in 10.0 mi South 9.2 mph - N/A   Overcast
5:55 AM 17.6 °F 7.3 °F 12.2 °F 79% 30.02 in 10.0 mi SSW 8.1 mph - N/A   Overcast
6:15 AM 15.8 °F 5.1 °F 12.2 °F 86% 30.03 in 10.0 mi SSW 8.1 mph - N/A   Overcast
6:35 AM 17.6 °F 6.4 °F 12.2 °F 79% 30.02 in 10.0 mi SSW 9.2 mph - N/A   Mostly Cloudy
6:55 AM 17.6 °F 6.4 °F 12.2 °F 79% 30.02 in 10.0 mi SSW 9.2 mph - N/A   Partly Cloudy
7:15 AM 15.8 °F 7.2 °F 10.4 °F 79% 30.02 in 10.0 mi SW 5.8 mph - N/A   Clear
7:35 AM 15.8 °F 5.1 °F 12.2 °F 86% 30.03 in 10.0 mi SSW 8.1 mph - N/A   Clear
7:55 AM 17.6 °F 5.0 °F 12.2 °F 79% 30.02 in 10.0 mi SSW 11.5 mph - N/A   Clear
8:15 AM 19.4 °F 5.5 °F 15.8 °F 86% 30.01 in 10.0 mi SSW 15.0 mph - N/A   Mostly Cloudy
8:35 AM 21.2 °F 6.8 °F 15.8 °F 80% 30.01 in 10.0 mi SW 17.3 mph - N/A   Overcast
8:55 AM 21.2 °F 7.8 °F 15.8 °F 80% 30.03 in 10.0 mi SW 15.0 mph - N/A   Mostly Cloudy
9:15 AM 23.0 °F 9.6 °F 17.6 °F 80% 30.02 in 10.0 mi SW 16.1 mph - N/A   Partly Cloudy
9:35 AM 24.8 °F 11.9 °F 17.6 °F 74% 30.04 in 10.0 mi WSW 16.1 mph - N/A   Clear
9:55 AM 24.8 °F 11.1 °F 17.6 °F 74% 30.03 in 10.0 mi SW 18.4 mph - N/A   Clear
10:15 AM 26.6 °F 13.4 °F 19.4 °F 74% 30.02 in 10.0 mi SW 18.4 mph - N/A   Clear
10:35 AM 28.4 °F 15.8 °F 19.4 °F 69% 30.02 in 10.0 mi SW 18.4 mph - N/A   Clear
10:55 AM 30.2 °F 17.4 °F 21.2 °F 69% 30.01 in 10.0 mi WSW 20.7 mph - N/A   Clear
11:15 AM 32.0 °F 19.8 °F 24.8 °F 75% 30.00 in 10.0 mi WSW 20.7 mph - N/A   Clear
11:35 AM 33.8 °F 22.5 °F 26.6 °F 75% 29.99 in 10.0 mi WSW 19.6 mph - N/A   Clear
11:55 AM 35.6 °F 23.7 °F 28.4 °F 75% 29.98 in 10.0 mi WSW 24.2 mph - N/A   Clear
12:15 PM 37.4 °F 27.5 °F 28.4 °F 70% 29.98 in 10.0 mi WSW 18.4 mph 27.6 mph N/A   Clear
12:35 PM 41.0 °F 31.4 °F 28.4 °F 61% 29.96 in 10.0 mi WSW 21.9 mph 27.6 mph N/A   Clear
12:55 PM 44.6 °F 36.4 °F 30.2 °F 57% 29.94 in 10.0 mi WSW 20.7 mph 29.9 mph N/A   Clear
1:15 PM 46.4 °F 38.5 °F 30.2 °F 53% 29.93 in 10.0 mi WSW 21.9 mph 27.6 mph N/A   Clear
1:35 PM 48.2 °F - 32.0 °F 54% 29.92 in 10.0 mi WSW 24.2 mph 29.9 mph N/A   Clear
1:55 PM 48.2 °F - 30.2 °F 50% 29.92 in 10.0 mi West 25.3 mph 31.1 mph N/A   Clear
2:15 PM 50.0 °F - 30.2 °F 47% 29.91 in 10.0 mi WSW 24.2 mph 31.1 mph N/A   Clear
2:35 PM 50.0 °F - 30.2 °F 47% 29.90 in 10.0 mi WSW 26.5 mph 36.8 mph N/A   Clear
2:55 PM 51.8 °F - 30.2 °F 44% 29.90 in 10.0 mi West 26.5 mph 34.5 mph N/A   Clear
3:15 PM 51.8 °F - 30.2 °F 44% 29.90 in 10.0 mi West 28.8 mph 35.7 mph N/A   Clear
3:35 PM 51.8 °F - 30.2 °F 44% 29.90 in 10.0 mi West 31.1 mph 38.0 mph N/A   Clear
3:55 PM 51.8 °F - 30.2 °F 44% 29.91 in 10.0 mi West 27.6 mph 36.8 mph N/A   Clear
4:15 PM 51.8 °F - 30.2 °F 44% 29.92 in 10.0 mi West 21.9 mph 32.2 mph N/A   Clear
4:35 PM 50.0 °F - 30.2 °F 47% 29.92 in 10.0 mi West 19.6 mph 26.5 mph N/A   Clear
4:55 PM 50.0 °F - 28.4 °F 43% 29.93 in 10.0 mi West 28.8 mph 35.7 mph N/A   Clear
5:15 PM 48.2 °F - 26.6 °F 43% 29.93 in 10.0 mi West 26.5 mph 33.4 mph N/A   Clear
5:35 PM 48.2 °F - 26.6 °F 43% 29.94 in 10.0 mi West 18.4 mph - N/A   Clear
5:55 PM 46.4 °F 38.7 °F 28.4 °F 50% 29.95 in 10.0 mi West 20.7 mph 26.5 mph N/A   Clear
6:15 PM 44.6 °F 37.8 °F 28.4 °F 53% 29.97 in 10.0 mi WSW 15.0 mph - N/A   Clear
6:35 PM 44.6 °F 38.8 °F 26.6 °F 49% 29.98 in 10.0 mi West 11.5 mph - N/A   Clear
6:55 PM 42.8 °F 37.5 °F 26.6 °F 53% 29.98 in 10.0 mi West 9.2 mph - N/A   Clear
7:15 PM 44.6 °F 37.2 °F 26.6 °F 49% 29.98 in 10.0 mi WSW 17.3 mph 21.9 mph N/A   Clear
7:35 PM 41.0 °F 33.1 °F 26.6 °F 57% 29.99 in 10.0 mi West 15.0 mph - N/A   Clear
7:55 PM 42.8 °F 36.2 °F 26.6 °F 53% 29.99 in 10.0 mi West 12.7 mph - N/A   Clear
8:15 PM 37.4 °F 27.2 °F 26.6 °F 65% 30.00 in 10.0 mi West 19.6 mph - N/A   Clear
8:35 PM 37.4 °F 28.2 °F 24.8 °F 60% 30.01 in 10.0 mi WSW 16.1 mph - N/A   Clear
8:55 PM 33.8 °F 24.8 °F 23.0 °F 65% 30.01 in 10.0 mi WSW 12.7 mph - N/A   Clear
9:15 PM 33.8 °F 24.8 °F 23.0 °F 65% 30.02 in 10.0 mi WSW 12.7 mph - N/A   Clear
9:35 PM 35.6 °F 27.1 °F 24.8 °F 65% 30.01 in 10.0 mi WSW 12.7 mph - N/A   Clear
9:55 PM 33.8 °F 24.3 °F 23.0 °F 65% 30.01 in 10.0 mi SW 13.8 mph - N/A   Clear
10:15 PM 32.0 °F 23.0 °F 23.0 °F 69% 30.02 in 10.0 mi SW 11.5 mph - N/A   Clear
10:35 PM 30.2 °F 21.3 °F 21.2 °F 69% 30.02 in 10.0 mi SW 10.4 mph - N/A   Clear
10:55 PM 32.0 °F 20.8 °F 24.8 °F 75% 30.02 in 10.0 mi WSW 17.3 mph - N/A   Clear
11:15 PM 33.8 °F 24.3 °F 24.8 °F 70% 30.01 in 10.0 mi WSW 13.8 mph - N/A   Clear
11:35 PM 33.8 °F 25.3 °F 24.8 °F 70% 30.01 in 10.0 mi West 11.5 mph - N/A   Clear
11:55 PM 32.0 °F 23.0 °F 23.0 °F 69% 30.01 in 10.0 mi WSW 11.5 mph - N/A   Clear